TimeCST,TemperatureF,Dew PointF,Humidity,Sea Level PressureIn,VisibilityMPH,Wind Direction,Wind SpeedMPH,Gust SpeedMPH,PrecipitationIn,Events,Conditions,WindDirDegrees,DateUTC
12:53 AM,66.9,60.1,79,29.99,4.0,SSW,25.3,31.1,0.14,Rain,Light Rain,210,2013-02-19 06:53:00
1:53 AM,68.0,60.1,76,29.97,10.0,SSW,18.4,29.9,0.00,,Overcast,200,2013-02-19 07:53:00
2:53 AM,68.0,61.0,78,29.98,8.0,SSW,18.4,-,0.01,Rain,Light Rain,210,2013-02-19 08:53:00
3:11 AM,64.4,57.2,77,29.99,4.0,NW,10.4,23.0,0.04,Rain,Light Rain,310,2013-02-19 09:11:00
3:19 AM,64.4,57.2,77,30.01,1.5,WNW,17.3,25.3,0.18,Rain,Heavy Rain,300,2013-02-19 09:19:00
3:29 AM,64.4,57.2,77,30.00,2.5,WSW,6.9,-,0.22,Rain,Rain,250,2013-02-19 09:29:00
3:36 AM,62.6,57.2,82,30.01,6.0,West,11.5,-,0.22,Rain,Light Rain,270,2013-02-19 09:36:00
3:44 AM,62.6,57.2,82,30.01,10.0,West,15.0,-,0.22,,Overcast,270,2013-02-19 09:44:00
3:51 AM,62.6,57.2,82,30.02,10.0,West,13.8,-,0.22,,Overcast,270,2013-02-19 09:51:00
3:53 AM,63.0,57.0,81,30.00,10.0,West,12.7,-,0.22,,Overcast,270,2013-02-19 09:53:00
4:53 AM,63.0,55.9,78,30.01,10.0,West,15.0,-,N/A,,Overcast,260,2013-02-19 10:53:00
5:02 AM,62.6,55.4,77,30.03,10.0,West,12.7,-,N/A,,Overcast,270,2013-02-19 11:02:00
5:26 AM,62.6,55.4,77,30.05,10.0,West,11.5,-,N/A,,Mostly Cloudy,260,2013-02-19 11:26:00
5:38 AM,62.6,55.4,77,30.05,10.0,West,11.5,-,N/A,,Mostly Cloudy,270,2013-02-19 11:38:00
5:53 AM,62.1,55.9,80,30.04,10.0,West,11.5,-,N/A,,Overcast,280,2013-02-19 11:53:00
6:53 AM,62.1,55.9,80,30.07,10.0,NW,11.5,-,N/A,,Mostly Cloudy,320,2013-02-19 12:53:00
7:44 AM,62.6,55.4,77,30.12,10.0,NNW,15.0,-,N/A,,Overcast,340,2013-02-19 13:44:00
7:53 AM,61.0,55.0,81,30.11,10.0,North,12.7,-,N/A,,Overcast,350,2013-02-19 13:53:00
8:33 AM,60.8,53.6,77,30.15,10.0,North,18.4,24.2,N/A,,Overcast,350,2013-02-19 14:33:00
8:53 AM,62.1,53.1,72,30.14,10.0,North,16.1,-,N/A,,Mostly Cloudy,350,2013-02-19 14:53:00
9:13 AM,62.6,53.6,72,30.16,10.0,North,15.0,-,N/A,,Scattered Clouds,360,2013-02-19 15:13:00
9:53 AM,63.0,51.1,65,30.17,10.0,North,17.3,-,N/A,,Clear,10,2013-02-19 15:53:00
10:53 AM,64.9,50.0,58,30.18,10.0,North,9.2,-,N/A,,Clear,350,2013-02-19 16:53:00
12:53 PM,66.0,48.0,52,30.16,10.0,NNW,12.7,-,N/A,,Clear,330,2013-02-19 18:53:00
1:53 PM,68.0,44.1,42,30.15,10.0,NNW,16.1,-,N/A,,Clear,340,2013-02-19 19:53:00
2:53 PM,68.0,46.9,47,30.15,10.0,NNW,10.4,-,N/A,,Clear,340,2013-02-19 20:53:00
3:53 PM,68.0,44.1,42,30.16,10.0,North,10.4,-,N/A,,Clear,350,2013-02-19 21:53:00
4:53 PM,64.9,45.0,48,30.14,10.0,North,9.2,-,N/A,,Clear,360,2013-02-19 22:53:00
6:53 PM,62.1,37.9,41,30.16,10.0,North,15.0,-,N/A,,Clear,10,2013-02-20 00:53:00
7:53 PM,61.0,34.0,36,30.18,10.0,North,21.9,-,N/A,,Clear,10,2013-02-20 01:53:00
8:53 PM,60.1,36.0,41,30.19,10.0,NNE,23.0,-,N/A,,Clear,20,2013-02-20 02:53:00
9:53 PM,57.9,36.0,44,30.21,10.0,NNE,18.4,-,N/A,,Clear,20,2013-02-20 03:53:00
10:53 PM,57.0,36.0,45,30.22,10.0,NNE,18.4,-,N/A,,Clear,20,2013-02-20 04:53:00
11:53 PM,55.9,34.0,44,30.23,10.0,NNE,18.4,-,N/A,,Clear,30,2013-02-20 05:53:00